Lid_Strength_Index
-1 -1 0 2 7 7 10 10 7 7 7 5 4 6 6 6 8 11 1 -0 -0 -0 -1 -1 -1 -1 -1 -2 -2 -2 -2 -1 -2 -2 -2 -2 -2 -2 -2 -2 -2 -3 -2 -2 -2 -2 -2 -2 -2
-1 0 1 4 9 11 10 8 8 7 6 5 5 5 6 7 4 3 2 -0 -1 -1 -1 -1 -1 -1 -1 -1 -2 -2 -2 -2 -2 -2 -2 -2 -2 -2 -2 -2 -2 -3 -2 -2 -2 -2 -2 -2 -2
-0 1 4 7 8 11 10 8 7 6 5 5 6 4 5 6 3 3 0 -0 -1 -1 -1 -1 -1 -1 -1 -1 -2 -2 -2 -2 -2 -2 -2 -2 -2 -2 -2 -2 -2 -2 -2 -2 -2 -2 -2 -2 -2
1 2 4 8 10 8 8 7 7 7 5 5 5 6 4 2 3 1 -0 -1 -0 -1 -1 -1 -1 -1 -1 -2 -2 -2 -2 -2 -2 -2 -2 -2 -2 -2 -2 -2 -2 -3 -2 -2 -2 -2 -2 -2 -2
1 3 8 9 9 8 7 6 6 7 6 6 5 6 5 2 1 0 0 -0 -0 -0 -1 -1 -1 -1 -2 -2 -2 -2 -2 -2 -2 -2 -2 -2 -2 -2 -2 -2 -2 -2 -2 -2 -2 -2 -2 -2 -2
5 4 10 11 9 7 6 5 6 6 6 5 6 6 5 2 1 1 -0 -0 -1 -0 -1 -1 0 -1 -1 -2 -2 -2 -2 -2 -2 -2 -2 -2 -2 -2 -2 -2 -2 -2 -2 -2 -2 -2 -2 -2 -1
6 8 10 10 9 8 7 5 6 6 7 6 4 7 4 3 1 0 -0 -0 -1 -1 -1 -1 -1 -1 -0 -1 -1 -1 -2 -2 -2 -2 -2 -2 -2 -2 -2 -2 -2 -2 -2 -2 -2 -2 -2 -1 -1
5 7 10 9 10 9 6 5 6 6 7 4 4 7 6 3 1 0 0 0 -0 -0 -1 -1 -1 -1 -1 -1 -0 -0 -1 -1 -1 -2 -1 -1 -1 -2 -2 -1 -2 -2 -2 -2 -2 -2 -2 -1 -1
5 10 12 10 9 8 6 6 6 5 6 5 4 4 3 2 1 1 1 1 1 0 -0 -1 -1 -1 -1 -1 -0 0 0 0 -0 -1 -0 -0 -1 -1 -1 -1 -1 -2 -2 -1 -1 -1 -2 -2 -1
6 10 10 7 7 7 6 6 6 7 6 6 5 3 2 2 2 3 3 3 2 1 0 -0 -1 -1 -1 -1 -1 -1 -1 -1 -1 -1 -1 -1 -1 -1 -1 -0 -1 -1 -1 -2 -1 -1 -2 -1 -1
7 10 7 6 6 6 7 7 6 7 7 5 6 4 3 3 3 3 3 2 2 1 0 -0 -1 -1 -1 -1 -1 -1 -1 -2 -2 -1 -1 -1 -1 -1 -1 -1 -1 -1 0 -1 -1 -0 -1 -1 -1
9 7 6 6 6 6 7 5 6 7 6 4 5 4 3 4 3 3 3 2 2 1 1 -0 -1 -1 -1 -1 -1 -1 -1 -1 -1 -1 -1 -1 -1 -1 -1 -1 -1 -1 -1 -1 -1 -1 -1 -1 -1
8 7 6 5 6 6 6 7 6 6 5 4 5 5 3 4 3 2 2 2 1 2 1 0 -0 -1 -1 -1 -1 -1 -1 -1 -1 -1 -1 -1 -1 -1 -1 -1 -1 -1 -1 -1 -1 -1 -1 -1 -1
6 6 6 6 6 6 7 7 6 5 4 6 6 5 4 3 3 3 2 3 2 1 1 0 -0 -1 -1 -1 -1 -1 -1 -1 -1 -1 -1 -1 -1 -1 -1 -1 -1 -0 -0 -1 -1 -1 -1 -1 -1
6 8 7 6 6 7 6 9 8 5 4 5 6 6 4 3 3 3 2 2 2 1 1 0 0 -1 -0 -0 -1 -0 -0 -1 -1 -1 -1 -1 -1 -1 -1 -1 -1 -1 -1 -0 -0 -1 -1 -0 0
8 8 11 7 6 6 7 11 7 5 5 5 5 5 5 4 3 2 2 2 1 1 1 0 0 -0 -0 -0 -1 -1 -1 -0 -0 -1 -1 -1 -1 -1 -1 -1 -1 -1 -1 -0 0 0 0 0 1
9 12 11 9 6 7 8 10 7 5 5 6 5 5 5 4 3 2 2 1 1 1 1 1 0 0 -0 -0 -1 -1 -1 -1 -0 -0 -1 -1 -1 -1 -1 -1 -1 -1 -0 0 0 0 1 1 1
12 12 10 10 8 8 9 10 7 5 6 6 5 5 5 5 4 2 2 1 1 1 1 1 0 0 -0 -0 -0 -0 -0 -1 -1 -1 -1 -1 -1 -1 -1 -1 -1 -1 -0 -0 -0 0 -0 0 1
9 10 11 9 7 9 9 9 7 6 6 6 5 5 5 6 4 3 2 1 1 1 1 1 1 0 0 1 1 1 1 0 -0 -1 -1 -1 -1 -1 -1 -1 -1 -1 -0 0 -0 0 1 1 0
10 11 11 9 7 9 9 9 7 6 7 6 6 5 5 4 5 4 2 2 2 2 1 1 1 1 0 0 0 0 0 0 -0 -1 -1 -1 -1 -1 -1 -1 -0 -0 0 0 0 0 1 1 0
11 12 11 11 9 8 10 11 9 7 6 6 5 5 4 4 4 4 4 2 2 2 1 1 1 1 0 0 0 0 0 0 1 0 0 -0 -1 -1 -1 -1 -1 -0 -0 0 0 0 1 2 1
14 9 10 11 13 15 9 16 10 8 7 8 6 5 5 4 3 3 3 3 2 2 1 1 1 1 1 0 1 1 2 2 1 1 0 -0 -1 -1 -1 -1 -1 -0 -0 0 0 0 0 1 2
12 9 10 11 13 13 12 16 12 8 9 8 7 5 5 4 4 3 3 3 3 1 1 1 1 1 1 1 1 1 2 1 1 1 1 0 -0 -1 -1 -1 -0 -0 -0 -0 0 0 1 1 1
8 11 11 12 14 19 14 14 13 10 9 7 6 5 5 5 4 3 3 3 3 2 1 1 1 1 1 1 1 1 2 2 2 1 1 1 0 0 -0 -0 -0 -0 -0 0 0 0 0 1 1
10 13 19 20 20 20 11 13 12 8 7 7 6 5 5 5 5 3 4 3 3 2 2 2 2 2 1 1 1 1 1 1 1 1 1 1 1 1 0 0 0 0 -0 -0 -0 0 1 1 1
12 13 17 21 20 17 12 17 12 7 6 5 5 5 4 5 5 4 4 3 3 3 2 2 2 2 1 1 1 1 1 1 1 1 1 1 1 1 0 0 -0 -0 -0 -0 -0 0 1 1 2
12 15 10 15 15 18 14 12 9 7 7 7 6 5 5 4 5 5 4 3 3 3 2 3 2 2 1 1 1 1 1 1 1 1 1 1 0 0 0 0 0 0 0 -0 0 1 2 2 2
10 9 15 15 21 21 15 14 12 9 8 7 7 6 5 4 5 5 5 5 4 3 2 2 2 2 1 1 1 1 1 1 1 1 1 1 1 0 0 0 0 0 0 0 0 1 1 2 2
11 13 13 14 15 18 19 14 8 8 7 7 7 6 5 5 4 4 5 4 4 4 4 3 3 3 2 1 1 1 1 1 1 1 1 1 1 0 1 0 1 1 1 0 1 1 3 3 2
8 11 11 17 17 16 16 16 7 7 6 6 6 5 5 4 4 4 4 4 5 6 6 5 4 4 4 2 1 1 1 1 1 1 1 1 1 0 1 1 1 1 1 1 1 1 1 2 2